Wind_Speed
10 9 12 4 4 5 1 2 1 1 2 2 5 7 8 6 2 2 11 11 7 7 6 10 12 11 9 9 11 10 9 10 10 10 10 9 11 10 11 12 10 10 11 11 13 15 15 14 12
10 9 5 2 4 3 4 0 3 2 6 12 11 7 5 2 3 7 13 10 8 6 5 8 10 10 7 9 9 10 9 10 9 9 10 8 9 10 10 10 11 10 11 11 13 15 16 15 13
10 8 3 4 3 4 4 3 5 7 7 4 5 6 3 4 4 8 7 13 12 8 7 7 7 8 7 7 7 9 10 6 8 8 8 7 8 9 9 8 9 10 11 12 14 15 16 15 12
6 1 1 4 2 0 6 6 7 8 6 4 11 7 3 6 4 8 12 12 11 9 8 6 5 8 8 8 7 7 7 8 7 7 7 7 8 8 9 8 9 11 11 12 13 14 14 13 11
4 1 2 3 1 2 2 12 16 4 7 7 7 5 4 8 6 7 12 13 10 9 7 4 6 8 8 9 8 7 7 7 6 6 6 6 6 7 8 9 9 10 10 11 11 12 12 13 11
1 2 3 0 1 2 2 15 12 7 8 9 7 7 6 9 11 13 13 13 10 8 6 5 7 8 8 9 7 7 7 7 6 5 5 5 5 6 7 8 9 9 10 10 9 10 10 11 10
3 3 3 3 4 3 5 11 10 9 9 4 12 5 5 13 10 14 15 15 11 10 7 6 6 7 7 6 6 5 5 5 5 5 4 4 5 5 5 7 7 8 8 8 8 9 8 8 9
0 4 1 2 4 4 6 4 8 9 4 9 7 6 6 18 15 20 18 16 12 11 9 7 5 6 5 4 5 4 3 3 4 3 3 3 4 4 4 5 6 7 7 7 7 7 8 7 8
1 3 1 2 3 4 10 4 4 7 11 5 6 5 5 16 19 23 23 20 17 16 12 10 7 6 6 5 4 2 3 2 3 3 2 3 3 3 3 5 6 6 6 5 6 6 6 6 6
3 3 3 2 3 4 8 6 10 7 8 4 7 8 8 19 22 24 28 25 22 19 15 12 9 8 7 6 4 2 2 1 2 1 1 2 3 4 4 6 6 6 6 6 6 6 6 6 6
4 4 4 1 3 4 5 4 8 12 4 12 15 15 17 21 21 22 24 24 19 16 15 14 12 10 8 7 5 3 3 3 2 1 1 2 4 5 6 6 7 6 7 7 7 8 8 8 8
2 1 3 4 2 2 3 2 5 13 9 8 19 15 19 21 23 24 24 25 23 21 17 15 14 13 11 9 8 6 5 4 3 2 2 3 5 6 7 7 7 7 8 8 9 8 9 9 10
1 3 3 4 3 4 5 7 6 12 13 12 10 22 21 21 21 21 21 21 22 22 19 17 16 15 13 12 11 10 7 5 4 4 4 4 5 6 7 7 7 8 9 9 10 10 11 11 11
1 1 4 6 5 4 3 5 2 10 19 13 18 23 24 24 21 21 24 25 25 22 20 17 17 16 16 15 14 11 9 8 6 6 5 5 5 6 7 8 8 9 10 11 11 12 13 12 13
3 3 6 8 6 4 4 7 10 25 6 20 23 24 25 24 23 24 23 25 23 21 16 18 15 15 16 16 15 14 12 10 8 7 7 6 6 7 7 8 8 10 11 11 12 12 13 14 14
1 4 3 4 8 2 4 9 9 12 23 18 26 26 27 25 26 24 21 22 21 20 19 17 17 16 15 16 15 14 13 11 10 9 8 7 7 7 7 7 8 9 10 11 11 12 13 14 15
5 3 4 8 12 4 4 8 7 5 18 22 28 29 29 28 27 26 22 21 20 20 20 21 19 17 14 14 15 14 13 13 10 10 8 8 8 8 8 8 8 10 10 11 12 12 14 14 14
3 3 5 5 4 4 4 14 11 12 16 26 27 31 33 32 31 25 25 22 21 21 21 22 20 18 15 14 15 15 15 13 12 9 8 8 8 8 9 8 9 11 12 12 14 15 16 17 18
3 3 3 5 2 3 8 11 15 23 20 28 30 30 33 34 26 25 23 24 24 27 24 24 24 19 19 18 17 16 13 11 11 9 9 8 8 8 9 9 10 12 13 14 15 16 17 18 19
3 3 5 5 1 1 8 14 15 13 16 33 38 36 35 33 32 31 28 29 28 28 27 25 24 21 19 17 14 13 12 13 11 10 8 7 7 8 10 11 12 14 16 17 17 19 20 20 18
2 3 3 4 5 4 6 9 6 6 22 27 37 42 39 36 32 32 34 32 29 30 29 27 24 22 20 16 15 16 16 14 11 8 6 5 8 9 11 13 14 15 17 17 18 19 21 21 21
2 2 2 3 5 3 4 6 8 5 8 10 30 37 42 39 34 31 34 35 33 29 27 26 24 23 20 18 19 18 15 13 9 9 8 8 10 11 13 14 15 16 16 17 17 18 19 21 22
6 1 2 2 1 4 3 1 9 2 7 10 20 38 40 39 35 35 35 36 31 28 26 25 24 23 22 21 20 18 17 14 12 12 11 10 12 13 15 16 16 17 17 16 16 17 18 19 22
2 3 6 4 2 2 5 5 7 5 8 4 7 35 38 38 36 33 32 35 31 26 26 26 26 25 23 23 21 20 17 14 14 12 11 10 12 14 15 16 16 16 16 15 15 15 17 18 21
4 6 4 3 2 6 1 3 11 8 9 8 11 34 35 35 33 33 34 38 34 30 28 28 27 26 24 23 22 20 17 15 14 11 10 10 11 11 12 15 15 15 15 15 16 16 17 17 20
5 7 5 4 3 5 2 7 7 8 11 17 20 28 36 36 35 34 35 36 34 31 29 29 29 27 26 23 21 18 17 16 13 11 10 8 9 10 11 13 13 13 13 14 16 16 17 17 19
3 4 4 2 1 2 5 8 10 7 8 6 19 19 31 35 34 34 35 36 34 33 31 30 29 27 26 24 21 21 19 18 14 11 11 7 7 8 9 11 11 11 12 13 14 15 15 17 17
3 3 3 2 3 5 6 6 8 9 7 5 6 19 27 31 32 34 34 34 34 33 31 29 27 26 25 24 23 22 20 18 16 15 12 8 6 7 8 9 10 11 12 13 14 13 14 16 16
1 2 0 2 5 4 3 6 6 6 7 10 11 23 28 29 32 31 32 32 32 33 32 31 29 28 28 27 25 24 23 21 20 19 16 11 7 6 7 8 9 10 11 13 13 13 13 15 15
5 9 7 4 5 4 3 8 4 8 9 10 17 18 23 27 29 28 29 30 32 32 33 33 32 31 30 29 28 27 25 24 24 23 19 15 9 7 7 8 9 10 11 12 14 13 14 16 16
Wind_Direction
324 326 326 342 50 64 31 37 32 109 52 53 47 87 117 79 84 176 140 161 168 180 181 174 141 145 149 132 136 116 123 108 99 92 95 90 88 74 77 78 74 58 62 54 49 48 45 48 68
320 309 341 30 82 70 284 318 150 174 140 115 104 87 52 86 130 156 152 170 186 208 187 176 151 151 152 134 139 123 116 127 110 109 98 92 84 88 76 74 69 61 61 57 52 47 44 46 56
313 303 349 91 110 159 187 194 184 147 138 167 113 85 93 142 157 161 158 162 197 174 166 165 156 158 150 135 132 126 131 129 118 113 100 101 96 89 79 71 72 69 61 57 54 49 45 47 64
330 320 54 87 224 69 170 187 176 140 122 110 123 76 113 196 145 180 178 184 175 167 171 181 172 161 152 146 133 122 131 123 127 116 115 103 85 77 78 76 67 59 56 55 52 50 48 52 64
348 358 40 62 319 86 168 178 161 156 141 130 158 162 137 166 173 199 186 184 188 183 183 186 192 170 158 155 143 135 127 132 120 115 102 89 82 75 69 69 66 60 58 56 54 50 50 54 58
47 69 57 72 151 134 210 178 165 149 140 136 117 124 170 183 181 191 191 190 210 207 198 228 193 173 162 159 150 137 131 127 130 123 104 88 75 70 59 58 56 53 51 49 49 49 49 55 63
110 85 191 211 181 194 206 162 161 151 145 151 150 120 176 181 189 195 189 200 207 212 209 212 207 180 163 151 145 131 128 123 124 126 117 107 95 87 80 57 50 47 41 41 39 38 41 47 50
224 96 279 270 186 210 180 126 148 140 181 133 183 176 188 193 181 181 194 202 217 210 225 216 199 197 184 164 142 135 136 131 132 124 99 99 103 85 72 59 51 49 37 33 30 31 31 31 28
213 60 327 274 165 198 164 142 155 132 143 180 195 218 257 187 177 181 191 202 212 217 228 219 213 201 188 184 167 130 145 150 151 134 107 106 103 90 58 60 52 43 36 31 23 20 24 23 18
124 109 241 273 198 179 185 174 154 151 147 177 197 213 197 177 183 187 193 203 209 218 218 221 221 219 208 205 199 191 193 187 160 138 41 19 18 22 36 37 51 24 19 21 13 15 15 14 7
167 178 205 252 72 166 188 185 182 145 206 206 213 205 190 186 193 200 203 212 218 223 226 225 225 232 229 232 235 231 244 248 226 247 310 328 339 351 355 359 8 1 3 4 358 357 356 354 352
176 231 224 175 198 186 187 243 223 194 221 234 238 225 198 199 205 208 209 212 216 223 232 233 229 237 242 246 256 254 256 256 267 282 309 324 332 329 331 337 339 345 348 348 346 348 345 344 340
96 240 206 206 223 242 234 238 240 235 226 225 224 210 208 209 216 218 220 220 222 225 227 235 238 242 248 250 256 255 258 262 267 293 295 311 314 312 315 320 332 337 340 342 340 341 335 336 331
280 285 282 239 254 247 240 262 244 245 225 220 213 209 213 215 221 220 217 218 222 227 226 229 236 240 247 252 252 256 260 265 272 281 290 290 305 308 313 320 328 335 337 338 339 334 332 332 327
300 339 324 231 216 229 223 294 232 246 222 219 208 215 214 222 222 228 231 222 221 224 225 229 234 239 244 249 248 249 253 259 269 281 287 299 309 311 316 322 330 331 331 333 333 331 332 332 326
25 54 346 290 168 200 117 273 272 269 220 217 205 211 217 224 230 233 233 230 225 225 227 232 236 239 246 247 247 246 249 257 266 276 284 293 300 305 313 322 329 323 325 327 329 328 329 330 329
8 249 231 309 197 133 161 268 273 224 205 218 214 214 221 229 232 234 231 231 225 228 229 233 239 241 246 248 243 244 248 252 257 261 272 283 292 300 307 314 317 315 317 320 318 323 323 329 328
248 255 265 245 236 196 196 260 271 267 220 220 221 222 225 230 236 237 229 228 228 230 234 236 243 241 242 245 242 240 241 243 248 255 261 268 280 286 294 301 307 307 311 316 315 318 317 322 325
251 243 270 260 252 172 240 262 264 258 238 234 232 226 226 230 233 235 232 227 226 227 233 233 235 235 234 235 236 238 242 244 242 243 247 255 267 280 293 304 304 304 309 310 307 310 315 318 321
256 293 298 288 299 192 273 263 259 228 230 227 227 229 229 232 233 231 227 223 224 227 230 233 235 234 235 238 239 241 241 237 233 232 238 251 268 283 296 303 306 303 303 304 305 305 307 309 315
271 226 258 252 322 267 307 286 290 263 231 229 228 235 234 232 228 226 223 221 223 226 229 231 233 232 233 234 235 233 230 229 223 227 236 260 274 288 295 298 300 301 300 303 301 302 301 304 305
292 217 280 321 29 270 37 287 295 266 261 218 221 226 231 230 228 227 223 220 222 226 229 232 232 230 230 231 232 233 232 231 225 236 250 266 284 292 295 298 299 299 300 302 303 299 299 298 301
228 35 348 351 349 348 303 126 271 296 263 237 222 225 226 226 227 226 224 223 223 223 224 228 229 228 228 230 231 233 231 228 228 241 257 273 285 296 301 303 303 304 303 305 304 301 299 295 296
89 22 31 50 73 331 238 159 277 221 221 262 223 224 226 224 225 226 226 222 221 221 221 224 224 224 224 226 227 227 227 226 234 245 266 285 293 299 304 302 302 303 302 301 299 296 296 298 298
78 55 329 339 348 229 217 173 252 261 240 225 215 218 220 216 217 220 218 216 217 216 217 220 221 221 219 222 223 222 223 226 235 246 267 280 291 300 304 301 305 306 302 299 296 295 297 299 300
181 158 164 244 240 283 333 240 253 233 257 263 248 231 215 212 216 219 217 215 216 215 217 218 217 216 216 217 217 218 221 225 232 240 255 271 289 300 301 305 306 305 301 299 296 296 299 300 301
177 184 193 137 330 6 248 289 294 289 264 243 225 224 219 214 213 215 216 217 217 217 219 220 218 215 215 216 215 215 218 222 224 230 239 247 278 300 305 307 308 309 310 307 302 304 306 301 304
150 180 75 5 241 261 281 274 242 322 304 286 222 218 213 211 212 213 216 218 219 220 221 221 221 218 215 216 216 217 219 220 218 220 218 226 261 292 307 312 316 314 311 307 305 308 307 305 310
112 273 174 147 164 202 297 268 218 264 289 265 258 222 212 210 210 212 215 220 223 222 221 221 220 218 216 217 217 218 217 217 216 215 210 217 245 282 306 316 318 314 308 304 304 306 305 306 309
180 201 159 143 242 234 167 265 282 284 290 287 258 250 229 215 213 216 218 219 220 219 220 220 220 220 218 218 219 220 218 217 217 213 210 219 236 268 299 313 319 315 310 302 302 301 302 304 306
Height
1546 1545 1543 1543 1552 1555 1563 1559 1555 1554 1555 1554 1552 1552 1555 1558 1559 1568 1564 1565 1567 1569 1570 1570 1571 1572 1571 1571 1571 1573 1572 1573 1572 1573 1572 1571 1570 1569 1567 1567 1567 1564 1562 1561 1558 1556 1554 1551 1551
1546 1544 1544 1543 1560 1571 1570 1557 1558 1553 1553 1554 1554 1555 1556 1560 1560 1560 1562 1565 1567 1568 1569 1570 1570 1571 1570 1570 1571 1572 1573 1573 1573 1572 1572 1571 1570 1569 1569 1567 1567 1566 1564 1562 1560 1557 1555 1553 1550
1546 1544 1544 1548 1561 1568 1566 1554 1554 1552 1553 1553 1555 1556 1558 1560 1559 1559 1561 1564 1566 1568 1569 1570 1570 1570 1570 1571 1571 1571 1573 1572 1572 1572 1572 1571 1570 1569 1568 1567 1566 1565 1564 1562 1561 1558 1556 1555 1554
1545 1545 1546 1554 1555 1550 1551 1552 1551 1551 1552 1552 1554 1557 1559 1559 1559 1560 1561 1563 1566 1568 1569 1570 1571 1571 1571 1572 1572 1572 1572 1572 1572 1572 1571 1570 1570 1569 1568 1568 1566 1565 1564 1563 1562 1561 1560 1558 1557
1544 1544 1552 1557 1552 1549 1548 1548 1550 1550 1550 1552 1553 1557 1558 1558 1559 1558 1560 1563 1566 1568 1569 1570 1570 1571 1571 1572 1573 1573 1572 1572 1572 1572 1571 1571 1570 1570 1569 1568 1568 1567 1566 1565 1564 1563 1562 1560 1559
1545 1546 1559 1563 1554 1549 1549 1548 1549 1549 1550 1552 1553 1556 1558 1558 1558 1559 1561 1563 1565 1567 1568 1569 1570 1570 1571 1572 1572 1572 1572 1572 1572 1572 1572 1571 1571 1570 1570 1569 1568 1568 1567 1566 1565 1564 1563 1562 1561
1545 1550 1558 1553 1553 1552 1548 1548 1548 1548 1549 1551 1551 1556 1558 1557 1559 1558 1561 1564 1565 1567 1568 1569 1569 1569 1570 1571 1571 1571 1572 1572 1572 1572 1572 1572 1572 1571 1571 1570 1569 1568 1568 1567 1566 1565 1564 1563 1562
1545 1547 1551 1550 1553 1552 1545 1546 1547 1547 1550 1551 1551 1553 1555 1554 1557 1560 1562 1564 1565 1566 1567 1567 1568 1568 1569 1570 1570 1571 1571 1571 1571 1572 1572 1571 1572 1572 1571 1570 1570 1569 1568 1567 1566 1566 1565 1564 1563
1545 1554 1560 1549 1549 1545 1544 1545 1547 1547 1547 1549 1549 1549 1549 1550 1556 1558 1560 1561 1563 1564 1565 1566 1566 1567 1568 1569 1569 1570 1571 1571 1572 1572 1572 1572 1572 1572 1571 1570 1569 1569 1568 1568 1567 1566 1566 1565 1564
1545 1556 1550 1545 1543 1543 1542 1542 1544 1546 1547 1548 1548 1548 1548 1550 1552 1554 1555 1556 1559 1560 1562 1564 1565 1566 1566 1568 1568 1569 1570 1571 1571 1571 1571 1571 1570 1570 1570 1570 1569 1569 1568 1568 1567 1566 1566 1565 1564
1544 1550 1543 1543 1542 1542 1543 1543 1543 1542 1547 1544 1543 1545 1547 1548 1550 1551 1553 1554 1556 1559 1560 1561 1563 1564 1565 1566 1567 1568 1569 1570 1570 1571 1570 1570 1569 1569 1569 1568 1568 1568 1568 1568 1567 1566 1565 1564 1563
1544 1542 1542 1541 1542 1542 1542 1543 1541 1540 1538 1539 1540 1542 1544 1545 1547 1548 1550 1552 1555 1556 1558 1560 1561 1562 1563 1564 1565 1567 1568 1569 1569 1569 1569 1569 1569 1568 1568 1567 1568 1567 1567 1566 1566 1565 1565 1564 1562
1542 1542 1541 1540 1541 1541 1541 1540 1539 1536 1537 1538 1538 1540 1541 1542 1544 1546 1548 1551 1553 1554 1556 1557 1559 1559 1561 1562 1564 1565 1566 1567 1568 1568 1568 1568 1568 1568 1568 1568 1567 1566 1566 1566 1565 1564 1563 1562 1561
1542 1541 1540 1539 1539 1539 1539 1538 1538 1531 1534 1534 1536 1537 1538 1539 1541 1543 1545 1547 1549 1552 1554 1557 1557 1558 1559 1560 1562 1563 1564 1565 1566 1566 1567 1567 1567 1567 1567 1566 1566 1565 1565 1564 1563 1563 1562 1561 1560
1541 1543 1541 1537 1537 1538 1538 1538 1533 1526 1530 1530 1532 1534 1535 1536 1538 1538 1541 1543 1546 1548 1552 1553 1556 1558 1558 1560 1561 1562 1563 1564 1564 1565 1565 1566 1565 1565 1565 1565 1565 1565 1563 1563 1562 1561 1560 1559 1558
1543 1545 1552 1536 1535 1537 1539 1543 1522 1522 1526 1527 1529 1530 1532 1532 1533 1536 1538 1540 1543 1546 1547 1551 1553 1555 1557 1558 1559 1560 1561 1562 1562 1563 1563 1563 1564 1564 1564 1564 1564 1563 1562 1561 1561 1560 1559 1558 1556
1550 1557 1553 1543 1533 1535 1539 1537 1521 1520 1522 1524 1525 1526 1527 1528 1529 1531 1534 1536 1539 1541 1545 1547 1550 1552 1555 1556 1557 1558 1559 1560 1561 1561 1561 1561 1562 1562 1562 1562 1562 1561 1561 1560 1559 1558 1557 1556 1554
1554 1553 1547 1547 1534 1535 1538 1533 1522 1521 1521 1519 1520 1521 1522 1522 1522 1526 1529 1532 1535 1538 1541 1544 1547 1549 1552 1553 1554 1555 1556 1557 1558 1559 1559 1560 1561 1561 1560 1560 1560 1559 1558 1558 1557 1555 1554 1553 1551
1544 1545 1546 1539 1531 1534 1535 1530 1519 1516 1517 1515 1515 1515 1515 1515 1519 1522 1525 1528 1532 1535 1537 1539 1542 1545 1547 1549 1550 1551 1553 1555 1556 1557 1558 1558 1559 1558 1558 1558 1557 1557 1556 1555 1554 1553 1552 1550 1549
1543 1545 1547 1537 1531 1534 1531 1524 1509 1506 1504 1503 1505 1507 1508 1510 1514 1516 1520 1524 1526 1529 1532 1535 1538 1541 1543 1546 1548 1550 1551 1552 1553 1554 1555 1555 1555 1555 1555 1554 1554 1554 1552 1552 1551 1550 1549 1548 1547
1543 1544 1545 1544 1537 1532 1532 1522 1504 1492 1492 1493 1495 1498 1501 1502 1506 1510 1513 1517 1521 1523 1526 1530 1533 1537 1539 1543 1545 1546 1547 1548 1550 1551 1552 1553 1553 1553 1552 1552 1551 1551 1549 1549 1548 1547 1546 1545 1544
1546 1539 1539 1540 1546 1553 1534 1548 1510 1491 1489 1487 1485 1488 1491 1495 1500 1504 1507 1511 1515 1518 1523 1526 1530 1533 1536 1539 1540 1542 1544 1545 1548 1549 1550 1550 1550 1550 1550 1549 1548 1547 1546 1545 1544 1543 1542 1541 1540
1543 1537 1539 1540 1547 1550 1541 1550 1509 1492 1487 1482 1477 1479 1483 1488 1493 1497 1500 1505 1510 1514 1518 1522 1526 1528 1531 1534 1536 1539 1540 1543 1545 1545 1546 1548 1548 1547 1546 1545 1543 1542 1541 1540 1540 1539 1538 1536 1535
1537 1538 1545 1549 1555 1564 1539 1540 1511 1494 1479 1473 1472 1473 1477 1482 1487 1492 1497 1502 1506 1510 1514 1518 1521 1523 1527 1530 1532 1534 1537 1539 1541 1542 1543 1544 1544 1543 1542 1541 1539 1538 1537 1537 1536 1535 1533 1533 1531
1541 1553 1569 1561 1565 1559 1531 1541 1502 1476 1470 1467 1465 1466 1471 1477 1482 1486 1490 1495 1500 1505 1509 1513 1516 1518 1522 1525 1528 1530 1533 1536 1537 1539 1540 1540 1540 1540 1539 1537 1536 1535 1534 1533 1532 1531 1530 1529 1527
1546 1550 1568 1557 1562 1549 1530 1531 1490 1462 1459 1459 1459 1461 1466 1472 1477 1480 1485 1490 1495 1500 1505 1508 1510 1514 1517 1520 1523 1527 1529 1531 1533 1535 1536 1536 1537 1536 1535 1534 1533 1532 1531 1530 1528 1527 1526 1525 1523
1543 1550 1541 1548 1550 1556 1532 1504 1473 1460 1457 1455 1456 1459 1461 1467 1471 1476 1481 1486 1491 1495 1499 1503 1506 1510 1513 1516 1519 1522 1525 1527 1529 1531 1532 1533 1534 1533 1532 1531 1530 1528 1527 1527 1525 1523 1522 1521 1519
1535 1537 1550 1557 1555 1553 1533 1519 1494 1471 1462 1457 1457 1456 1458 1463 1469 1473 1478 1482 1486 1491 1495 1499 1503 1506 1509 1512 1515 1517 1520 1523 1525 1526 1528 1530 1531 1530 1529 1528 1527 1526 1524 1523 1521 1520 1518 1516 1515
1540 1542 1542 1548 1554 1553 1550 1514 1475 1468 1463 1460 1455 1453 1456 1460 1465 1470 1474 1478 1483 1487 1491 1494 1497 1500 1503 1506 1510 1512 1515 1517 1520 1522 1524 1526 1527 1527 1526 1525 1523 1522 1521 1519 1518 1517 1515 1513 1511
1529 1533 1537 1554 1541 1548 1547 1514 1467 1467 1461 1457 1453 1455 1458 1461 1465 1469 1472 1475 1478 1482 1485 1488 1491 1494 1497 1501 1504 1506 1510 1512 1514 1517 1519 1521 1523 1523 1522 1521 1519 1518 1517 1515 1514 1512 1511 1509 1508